Flag for Germany Weather past 2 weeks in Zittau, Saxony, Germany

Now
48 °F

Cool.


Feels Like: 48 °F
Forecast: 46 / 68 °F
Wind: 2 mph from North

Location: Liberec

Current Time: Aug 20, 2014 at 8:05:25 AM

Latest Report: Aug 20, 2014 at 7:00 AM


Visibility: 13 mi

Pressure: 30.00 "Hg

Humidity: 84%

Dew point: 44 °F

Location of ZittauLocation

Historic Weather in Zittau — Graph

°F

Zittau temperature yesterday

Maximum temperature yesterday: 66 °F (at 5:00 PM)
Minimum temperature yesterday: 47 °F (at 5:00 AM)
Average temperature yesterday: 57 °F

Past Weeks' High & Low Weather Summary

 TemperatureHumidityPressure
High82 °F (Aug 10, 3:00 PM)99% (Aug 5, 6:00 AM)30.06 "Hg (Aug 5, 6:00 AM)
Low44 °F (Aug 20, 5:00 AM)40% (Aug 7, 2:00 PM)29.65 "Hg (Aug 13, 7:00 PM)
Average63 °F76%29.91 "Hg
* Reported Aug 5 6:00 AM — Aug 20 6:00 AM, Zittau, Weather by CustomWeather, © 2014

Note: Actual official high and low records may vary slightly from our data, if they occured in-between our weather recording intervals... More about our weather records

Advertising

Zittau weather history for previous 24 hours

 ConditionsComfort  
Time TempWeatherWind HumidityBarometerVisibility
6:00 AM
Aug 20
45 °FQuite cool.1 mph98%30.00 "Hg12 mi
5:00 AM44 °FQuite cool.1 mph96%29.98 "Hg12 mi
4:00 AM46 °FCool.1 mph94%29.97 "Hg12 mi
3:00 AM48 °FCool.1 mph93%29.95 "Hg12 mi
2:00 AM49 °FCool.1 mph90%29.94 "Hg12 mi
1:00 AM51 °FCool.1 mph84%29.93 "Hg12 mi
12:00 AM55 °FCool.5 mph75%29.92 "Hg12 mi
11:00 PM
Aug 19
59 °FCool.5 mph64%29.87 "Hg12 mi
10:00 PM61 °FSprinkles. Overcast.3 mph61%29.86 "Hg12 mi
9:00 PM61 °FOvercast.2 mph58%29.86 "Hg25 mi
8:00 PM59 °FPartly sunny.2 mph66%29.85 "Hg28 mi
7:00 PM65 °FPassing clouds.2 mph50%29.83 "Hg28 mi
6:00 PM64 °FMild.2 mph56%29.84 "Hg12 mi
5:00 PM66 °FPartly sunny.2 mph48%29.84 "Hg28 mi
4:00 PM65 °FPartly sunny.3 mph50%29.85 "Hg28 mi
3:00 PMN/APassing clouds.18 mphN/AN/A1 mi
2:00 PM65 °FScattered clouds.3 mph53%29.86 "Hg25 mi
1:00 PM64 °FPartly sunny.3 mph56%29.87 "Hg25 mi
12:00 PM62 °FPassing clouds.5 mph61%29.89 "Hg25 mi
11:00 AM60 °FPassing clouds.3 mph66%29.89 "Hg25 mi
10:00 AM56 °FScattered clouds.3 mph74%29.90 "Hg19 mi
9:00 AM55 °FPartly sunny.2 mph78%29.90 "Hg16 mi
8:00 AM54 °FPartly sunny.2 mph82%29.90 "Hg15 mi
Weather by CustomWeather, © 2014

See weather overviewHow to use our weather pages